Temperature
15 15 15 16 17 17 19 22 24 24 24 23 23 23 22 19 20 17 15 15 15 15 15 15 16 16 16 16 16 16 16 16 16 16 16 16 16 16 16 16 17 17 17 17 16 16 17 17 16
15 15 16 17 17 18 20 22 24 24 23 22 22 22 22 18 16 16 15 15 14 14 14 15 15 15 16 16 16 16 16 16 16 16 16 16 16 16 16 16 16 16 16 16 16 16 16 16 16
14 15 16 17 18 19 22 23 22 22 21 22 21 21 20 18 16 15 15 14 14 14 14 15 15 15 15 16 16 16 16 16 16 16 16 16 16 16 16 16 16 16 16 16 16 16 16 16 16
14 15 17 18 19 21 23 23 22 21 21 21 21 19 17 17 16 15 14 14 14 13 14 14 15 15 15 15 15 15 16 16 16 16 16 16 16 16 16 16 16 16 16 16 16 16 16 16 16
14 16 17 17 19 21 23 23 22 21 21 21 21 19 16 15 15 15 14 14 13 13 14 14 14 15 15 15 15 15 15 15 15 15 15 15 15 15 15 15 15 15 15 16 15 16 16 15 16
15 17 17 18 20 22 22 23 22 21 21 21 20 19 15 15 14 14 14 14 13 13 13 14 14 14 14 14 15 15 15 15 15 15 15 15 15 15 15 15 15 15 15 15 15 15 15 15 15
16 16 17 19 20 21 22 22 22 21 21 21 20 18 15 14 14 14 14 13 13 13 13 13 13 14 14 14 14 14 14 14 14 14 14 14 15 15 14 15 15 15 15 15 15 15 15 15 15
16 16 17 18 20 21 22 21 21 21 20 20 20 18 15 14 14 13 13 13 12 12 12 13 13 13 14 14 14 14 14 14 14 14 14 14 14 14 14 14 14 14 14 14 14 14 14 14 14
15 15 16 19 20 20 20 20 19 19 19 18 18 17 16 15 13 13 13 12 12 12 12 12 13 13 13 13 13 13 13 13 13 13 13 13 13 13 14 14 14 14 14 14 14 14 14 14 14
15 14 17 18 19 19 19 19 19 18 18 17 16 16 15 14 13 13 12 12 12 12 12 12 12 13 13 13 13 13 13 13 13 13 13 13 13 13 13 13 13 13 13 13 13 13 13 13 13
15 15 17 18 18 18 18 18 18 18 17 18 16 15 14 13 13 13 13 12 12 12 12 12 12 12 12 13 12 13 13 13 13 13 12 12 13 13 12 12 12 13 13 13 13 12 12 12 12
16 16 17 17 16 16 17 18 18 17 18 17 17 16 14 13 13 13 13 12 12 12 12 12 12 12 12 12 12 12 12 12 12 12 12 12 12 12 12 12 12 12 12 12 12 12 12 12 12
15 16 16 16 15 15 16 16 17 17 17 17 16 15 14 14 13 13 13 13 12 12 12 12 12 12 12 12 12 12 12 12 12 12 12 12 12 12 12 12 12 12 11 11 11 11 11 11 11
16 16 16 16 15 15 15 15 15 16 16 16 15 15 14 14 13 13 13 13 12 12 11 11 12 12 12 12 12 12 12 11 11 11 11 11 11 11 11 11 11 11 11 11 11 11 11 11 11
15 14 15 15 15 15 14 14 14 16 16 16 15 14 14 14 13 13 13 12 12 11 11 11 11 11 12 11 11 11 11 11 11 11 11 11 11 11 11 11 10 10 10 10 10 10 10 10 10
14 13 13 15 15 14 13 12 15 16 16 15 15 14 14 14 13 13 13 12 12 11 11 11 11 11 11 11 11 11 11 11 11 11 10 10 10 10 10 10 10 10 10 10 10 10 10 10 10
13 12 13 14 15 14 13 13 15 16 16 15 15 15 14 13 13 13 12 12 11 11 11 11 11 11 11 11 11 11 10 10 10 10 10 10 10 10 10 10 10 9 9 9 9 9 9 9 9
12 13 14 14 14 14 12 13 14 15 15 15 15 15 14 14 13 13 12 12 11 11 11 11 11 11 11 11 10 10 10 10 10 10 10 10 10 9 9 9 9 9 9 9 9 9 9 8 8
14 14 14 15 14 14 13 13 14 14 14 14 15 15 15 14 13 13 12 11 11 10 10 10 10 10 10 10 10 10 10 10 9 9 9 9 9 9 9 9 9 9 8 8 8 8 8 8 8
13 12 13 13 13 13 12 13 13 14 14 14 15 15 15 14 14 13 12 11 11 10 10 10 10 10 10 10 10 10 10 9 9 9 9 9 9 9 9 8 8 8 8 8 7 7 7 7 7
12 12 12 13 12 12 12 11 13 14 15 15 15 15 15 14 13 13 12 11 10 10 10 10 10 10 10 10 10 9 9 9 9 8 8 8 8 8 8 8 8 7 7 7 7 7 6 6 6
11 12 13 12 10 10 11 9 13 14 14 14 14 14 14 14 13 12 11 11 10 10 10 9 10 10 9 9 9 9 9 8 8 8 8 8 8 8 8 7 7 7 7 7 7 6 6 6 5
11 12 12 12 11 10 11 9 11 13 13 13 13 14 14 14 13 12 11 11 10 10 9 9 9 9 9 9 9 8 8 8 8 8 7 7 7 7 7 7 7 7 7 6 6 6 6 5 5
11 11 11 11 9 8 9 9 10 12 13 13 13 13 14 13 13 12 11 10 10 9 9 9 9 9 9 9 8 8 8 8 7 7 7 7 7 7 7 7 6 6 6 6 6 5 5 5 4
10 8 7 7 7 7 11 10 10 13 13 13 12 13 13 12 12 11 10 10 9 9 9 8 8 8 8 8 8 8 8 7 7 7 7 7 7 6 6 6 6 6 6 6 5 5 5 4 4
8 8 8 8 8 9 10 10 11 12 12 12 12 12 12 11 11 10 10 9 9 9 8 8 8 8 8 8 8 7 7 7 7 7 7 6 6 6 6 6 6 6 5 5 5 5 4 4 4
8 8 9 8 9 9 9 11 11 12 11 11 11 11 10 10 10 10 9 9 9 8 8 8 8 8 8 8 7 7 7 7 6 6 6 6 6 6 6 6 5 5 5 5 5 4 4 4 3
8 9 8 7 8 9 10 11 10 10 10 10 9 10 10 10 9 9 9 8 8 8 8 8 7 7 7 7 7 7 7 6 6 6 6 5 5 5 5 5 5 5 5 5 4 4 4 3 3
7 7 7 7 8 9 9 10 11 10 10 9 9 10 10 9 9 8 8 8 8 7 7 7 7 7 7 7 7 6 6 6 6 5 5 5 5 5 5 5 5 5 5 4 4 4 3 3 3
6 7 7 7 7 8 8 8 10 9 9 9 9 10 9 9 8 8 7 7 7 7 7 7 6 6 6 6 6 6 6 5 5 5 5 5 5 5 5 4 4 4 4 4 4 3 3 2 2
Wind_Speed
9 11 8 3 4 5 9 9 6 1 3 5 8 6 6 6 6 10 6 9 12 12 14 13 12 12 13 13 13 13 13 12 12 12 12 11 11 11 11 11 10 10 10 9 9 8 7 7 6
10 8 5 4 5 7 9 11 6 2 7 6 5 4 5 7 8 10 7 9 11 13 14 13 13 13 13 13 13 13 13 12 12 12 11 11 11 10 10 10 10 10 9 9 9 8 8 7 7
10 8 4 4 6 8 5 2 6 8 9 5 3 4 5 6 8 7 8 9 11 13 15 13 13 13 13 13 12 12 12 12 12 11 11 11 10 10 10 10 9 9 9 9 8 8 8 7 7
5 4 5 7 12 11 5 4 9 8 5 3 6 5 5 6 5 9 10 9 12 13 15 13 13 13 13 12 12 12 11 11 11 11 10 10 10 10 10 9 9 9 9 8 8 8 8 7 7
5 4 6 8 13 11 4 4 7 5 7 5 5 6 6 5 11 11 8 9 11 12 14 13 13 13 12 12 11 11 11 10 10 10 10 9 9 9 9 9 8 8 8 8 7 7 7 7 7
4 5 7 11 12 10 5 3 5 5 6 6 4 6 6 8 9 9 8 9 11 11 12 13 13 13 12 11 11 11 10 10 10 10 9 9 8 8 8 8 8 8 8 8 7 7 7 7 7
5 5 8 11 10 7 6 6 6 5 5 6 4 5 8 9 9 8 8 9 10 10 10 11 12 12 12 11 11 11 10 10 9 9 9 9 8 8 8 8 8 8 8 8 8 7 7 7 6
4 4 8 10 10 6 3 4 2 0 1 3 2 4 8 11 10 8 8 9 9 8 7 8 10 10 10 10 10 10 9 8 8 8 7 7 7 7 7 7 7 7 7 7 7 7 7 7 7
4 5 7 7 7 3 5 4 3 5 3 3 4 5 10 16 12 9 8 7 7 7 7 6 7 8 8 8 8 8 7 7 6 6 6 6 6 6 6 6 6 6 7 7 7 7 7 7 7
5 6 7 4 4 3 3 3 5 3 3 3 5 9 13 13 11 10 9 9 8 8 7 6 5 6 6 6 6 5 5 5 5 4 5 5 5 5 5 4 5 5 6 7 7 7 8 7 5
7 7 6 4 5 5 2 1 3 5 6 7 10 12 13 12 11 10 9 9 8 8 7 7 5 5 5 3 4 3 3 4 4 5 5 5 4 4 3 3 4 4 5 5 6 6 5 5 4
8 9 7 3 2 3 2 2 4 7 3 2 6 14 13 12 12 11 9 9 8 8 7 7 5 5 4 3 2 3 3 3 3 3 4 4 3 3 3 3 3 4 4 4 4 4 5 5 6
13 9 6 2 1 4 5 5 5 7 4 3 5 11 13 12 11 9 8 8 9 8 7 6 6 5 4 3 2 3 2 2 3 3 4 4 2 2 2 3 4 4 5 4 4 4 4 4 5
6 9 7 5 5 5 6 8 6 8 6 6 8 10 11 11 11 9 8 8 9 9 7 6 6 5 4 3 2 2 2 3 3 3 3 3 3 2 2 2 3 4 5 5 4 4 4 4 4
4 5 7 8 8 6 5 9 11 11 8 9 9 10 10 10 10 10 9 8 9 9 8 7 6 5 4 3 2 2 2 3 2 2 2 3 3 2 2 1 2 3 5 5 5 5 4 4 5
5 6 7 8 10 7 6 9 8 10 11 10 10 10 10 10 10 9 9 8 8 9 8 7 6 5 5 4 2 2 2 3 2 2 2 2 2 2 2 1 1 3 4 4 3 3 4 4 5
8 8 9 7 10 8 9 8 4 6 10 10 10 10 10 10 10 9 9 9 9 9 9 7 6 6 5 4 2 2 2 2 2 2 2 1 1 1 2 1 1 3 3 3 4 3 3 4 5
9 10 9 9 9 10 10 9 6 5 7 10 10 10 11 11 11 10 10 9 9 9 9 8 6 6 5 3 2 2 2 1 2 2 2 1 0 1 1 1 2 2 2 2 3 3 4 4 5
7 8 8 3 4 7 10 11 10 8 8 10 10 10 11 11 11 10 10 10 9 9 9 8 7 6 5 3 3 2 2 1 1 1 2 1 1 1 1 1 1 1 2 3 3 3 4 4 4
12 10 7 2 3 4 6 10 10 10 11 10 11 10 10 10 10 11 10 9 9 9 9 9 8 7 5 4 3 3 2 2 1 1 2 2 1 1 1 1 1 1 2 3 3 3 3 4 4
13 12 9 5 1 4 4 8 11 11 12 11 11 10 10 11 11 11 11 9 8 8 9 8 8 7 6 5 3 2 2 1 1 1 1 2 2 1 0 1 1 2 2 2 3 3 3 4 4
10 8 7 5 3 4 6 5 6 7 10 12 11 10 9 10 10 11 11 10 9 8 7 7 7 7 6 6 4 4 3 3 3 2 2 2 2 2 1 1 1 2 2 2 3 3 3 4 4
4 1 3 5 5 4 5 5 7 5 8 11 10 10 9 9 10 11 11 10 9 8 7 7 7 7 6 6 5 5 3 3 2 2 2 2 2 2 2 2 2 2 2 3 4 4 4 3 4
5 3 1 3 3 6 10 8 6 6 8 8 9 9 9 8 8 9 9 9 8 8 7 6 6 6 6 6 6 5 4 3 2 2 2 2 1 2 2 2 2 3 3 3 4 4 5 5 5
7 6 3 3 5 8 7 8 7 4 2 6 8 8 7 7 7 8 9 9 9 9 9 7 7 6 6 6 5 5 4 4 4 3 2 2 1 2 2 2 2 3 3 4 4 5 5 5 5
10 8 6 6 6 4 6 8 4 3 4 5 6 6 6 6 6 7 8 9 9 9 8 7 7 6 6 6 5 4 4 3 2 2 2 2 2 3 3 3 3 4 5 5 5 4 5 5 6
9 9 4 1 2 3 6 5 2 4 5 5 6 7 6 6 6 6 7 8 8 8 7 6 6 5 5 5 5 4 4 3 2 2 2 2 2 3 3 3 4 5 5 5 5 5 6 6 6
3 5 5 5 5 5 5 7 5 7 7 6 7 7 6 6 6 6 6 6 7 7 6 5 5 5 5 5 4 3 3 3 2 2 2 2 2 3 3 4 5 5 5 5 5 5 6 6 7
7 6 6 5 4 4 4 2 2 4 6 7 6 7 7 7 6 5 5 5 6 6 6 4 4 4 3 4 4 3 2 2 2 2 2 2 2 3 4 4 5 5 6 5 5 6 7 8 8
5 6 7 6 5 4 2 2 3 4 5 6 6 6 6 6 6 5 5 5 5 6 5 5 4 4 4 3 3 3 2 1 1 2 2 2 3 4 4 5 5 6 6 6 6 7 8 8 9
Wind_Direction
274 250 235 230 227 232 241 245 247 108 58 36 23 33 42 36 37 119 163 114 113 114 110 99 95 94 89 84 79 77 75 74 72 70 69 68 65 63 60 58 56 52 51 50 46 42 42 40 38
275 244 226 231 234 230 237 227 234 116 90 71 35 29 66 77 81 111 125 113 112 108 101 99 96 94 91 87 83 80 76 73 71 70 68 66 63 61 59 57 53 50 47 46 44 40 37 34 29
266 247 227 223 229 231 258 165 129 93 92 109 89 23 50 88 107 116 122 125 110 103 100 101 100 95 91 88 85 81 77 73 71 69 68 65 63 60 58 56 52 48 45 44 41 36 32 28 22
239 214 243 241 242 244 266 62 89 103 105 128 126 95 67 50 91 113 131 130 115 108 104 104 102 97 93 89 86 82 78 75 72 69 66 64 62 59 56 54 51 47 42 39 36 31 26 20 13
243 228 226 237 245 255 271 92 108 139 151 172 163 119 95 74 97 117 135 123 112 108 108 109 106 101 96 92 89 84 79 76 72 70 66 64 62 60 56 53 48 44 39 34 29 23 18 13 7
227 235 230 231 237 235 224 139 146 189 166 156 163 127 114 125 121 131 130 118 109 111 114 116 112 106 100 95 90 85 81 77 75 71 68 64 60 57 54 50 44 38 32 25 19 15 11 4 357
242 246 249 253 247 225 197 154 179 197 179 159 159 124 130 143 134 135 128 113 107 111 118 123 120 111 104 99 94 88 85 81 78 75 72 67 62 57 53 47 41 34 27 19 14 7 1 356 347
264 270 250 251 258 250 156 126 121 293 168 104 118 141 149 148 140 136 121 110 107 111 115 120 118 114 109 103 99 95 91 88 83 82 80 71 63 57 52 46 39 29 20 11 4 359 351 344 337
271 253 250 247 253 247 112 126 84 25 53 72 51 51 118 134 141 136 126 119 120 122 117 113 110 107 108 110 108 104 100 98 91 85 83 67 58 52 49 47 32 22 12 2 355 347 339 330 324
219 238 244 295 342 7 105 134 134 152 171 154 104 91 116 134 145 153 155 152 145 140 130 118 110 108 109 111 114 110 100 97 85 73 59 52 48 50 45 36 21 9 0 352 346 339 333 330 319
208 239 258 284 7 354 13 166 165 201 207 195 167 149 145 152 161 170 169 158 149 141 132 122 117 111 104 104 107 101 99 88 75 64 53 48 45 42 33 26 11 358 349 344 337 329 326 324 321
233 242 262 290 11 328 283 236 219 227 234 66 145 153 156 168 176 178 172 157 144 137 134 126 126 119 112 106 104 105 91 80 71 63 54 47 41 34 20 21 4 1 350 346 342 337 333 334 333
233 251 248 246 234 277 282 263 255 243 227 114 123 150 166 177 179 178 170 155 145 139 136 134 133 130 124 117 121 102 92 86 77 63 53 54 53 30 20 15 8 1 355 353 345 341 337 334 332
237 243 241 225 220 231 242 251 239 237 201 168 166 174 178 182 180 177 171 159 150 145 143 139 138 136 133 133 126 114 102 94 87 75 60 49 53 39 26 14 7 4 352 343 338 332 329 321 318
271 260 244 223 211 210 217 246 229 226 199 190 186 185 186 186 183 180 170 162 154 149 146 145 147 141 142 140 135 121 128 111 99 89 74 56 50 37 29 8 355 356 341 338 338 334 333 322 321
226 230 236 213 197 185 194 245 232 205 199 203 194 189 187 188 186 179 166 161 152 148 148 150 152 146 147 142 146 140 126 113 118 115 89 63 48 29 26 14 341 344 344 345 330 333 333 327 322
209 221 222 210 188 174 201 246 231 187 190 200 196 190 185 188 187 179 169 160 154 153 151 152 149 153 151 147 148 141 129 128 134 126 105 73 39 16 32 11 345 356 355 338 327 340 331 323 318
203 216 222 210 186 187 207 238 240 203 195 204 204 195 188 189 189 177 166 159 155 152 150 152 153 153 147 147 149 144 137 148 132 131 132 136 23 13 20 10 359 357 332 326 320 321 323 314 308
257 247 250 232 157 195 224 241 245 227 213 212 211 203 194 193 182 168 160 156 154 155 155 158 159 160 152 156 160 159 168 167 147 150 153 186 251 333 7 339 326 327 309 300 307 313 317 319 318
252 257 259 257 156 210 248 256 250 234 220 213 211 207 197 188 177 167 162 162 165 164 162 163 164 165 161 165 169 169 165 181 186 179 178 202 222 265 313 304 287 293 301 311 315 318 313 317 335
234 237 239 241 195 236 268 277 239 231 219 209 206 202 194 184 179 172 167 166 163 165 166 170 167 164 164 160 154 146 124 131 169 199 205 201 207 229 233 263 282 289 286 289 299 303 303 304 310
232 239 234 229 220 246 200 267 254 217 209 205 201 195 193 182 176 172 169 169 170 167 160 161 162 161 162 159 163 169 177 195 215 204 213 221 198 198 219 250 264 278 280 282 287 295 289 287 293
212 229 224 222 227 263 229 245 267 211 214 204 193 189 189 180 174 170 169 170 164 156 157 161 162 162 164 168 173 179 192 207 207 195 205 224 221 201 214 233 245 270 270 270 278 283 280 273 273
155 138 187 240 224 246 217 212 258 214 210 191 181 178 179 171 163 159 158 154 150 151 155 160 164 167 167 172 178 184 191 196 197 208 211 226 231 235 232 242 249 262 265 267 268 269 271 269 271
176 155 160 190 214 237 202 205 239 211 172 164 163 165 164 154 154 155 154 158 159 158 161 165 168 174 172 174 183 187 193 195 200 205 210 226 240 253 248 263 262 264 265 267 268 268 268 267 269
196 189 181 189 206 218 188 216 232 150 108 104 116 124 129 139 146 150 154 156 155 155 160 167 173 176 176 178 186 187 190 193 200 206 214 232 240 247 248 252 258 267 268 274 273 272 267 269 264
181 213 231 235 266 232 216 210 199 139 129 129 130 129 139 143 141 144 146 149 149 152 158 165 170 176 179 180 182 187 188 193 195 206 225 240 249 266 263 265 266 267 270 271 272 270 270 268 264
218 187 175 191 203 228 221 207 200 174 172 163 155 151 149 147 145 141 140 145 148 150 152 157 166 177 177 177 185 188 187 188 189 203 231 250 261 272 271 271 274 276 274 274 276 274 270 273 273
189 201 196 200 227 210 218 221 9 152 153 149 143 142 146 146 146 142 142 143 142 142 148 155 165 163 167 180 177 174 182 179 193 214 234 248 262 266 266 270 273 275 277 279 278 275 277 277 278
211 204 188 187 219 218 237 250 0 84 106 115 115 121 123 128 132 136 139 139 140 144 150 158 168 170 169 169 168 168 170 178 211 235 250 256 266 270 272 275 275 278 282 281 277 279 280 277 279
Height
1484 1486 1489 1493 1495 1495 1488 1473 1462 1462 1464 1468 1469 1471 1475 1482 1485 1498 1500 1500 1501 1501 1502 1504 1506 1507 1509 1510 1512 1513 1514 1515 1516 1517 1518 1518 1519 1520 1520 1521 1521 1522 1522 1523 1523 1523 1523 1523 1524
1483 1487 1492 1492 1493 1494 1481 1467 1463 1463 1467 1471 1473 1475 1478 1486 1489 1494 1497 1500 1501 1501 1502 1504 1506 1507 1509 1510 1511 1512 1514 1515 1516 1516 1517 1518 1519 1519 1520 1520 1521 1521 1522 1522 1522 1522 1522 1523 1523
1483 1487 1491 1488 1485 1483 1471 1459 1461 1465 1469 1473 1477 1479 1483 1489 1491 1494 1496 1499 1500 1500 1502 1504 1505 1507 1509 1510 1511 1512 1513 1514 1515 1516 1516 1517 1518 1518 1519 1519 1520 1520 1521 1521 1521 1521 1521 1521 1522
1485 1488 1488 1485 1480 1469 1462 1461 1463 1467 1472 1475 1478 1483 1487 1491 1492 1493 1496 1499 1500 1500 1502 1504 1505 1507 1508 1510 1511 1512 1513 1514 1514 1515 1516 1516 1517 1517 1518 1518 1519 1519 1519 1519 1520 1520 1520 1520 1520
1485 1486 1485 1482 1475 1465 1459 1460 1464 1469 1472 1476 1478 1483 1488 1491 1491 1494 1497 1499 1500 1500 1501 1503 1505 1507 1508 1509 1510 1511 1512 1513 1514 1514 1515 1516 1516 1517 1517 1517 1517 1518 1518 1518 1518 1518 1519 1519 1519
1484 1481 1481 1479 1470 1462 1460 1461 1465 1468 1471 1475 1478 1482 1489 1491 1492 1495 1497 1499 1500 1500 1501 1503 1505 1506 1507 1509 1510 1511 1512 1512 1513 1514 1514 1515 1515 1515 1516 1516 1516 1516 1516 1517 1517 1517 1517 1517 1517
1482 1479 1476 1470 1465 1461 1458 1460 1465 1468 1470 1474 1476 1481 1487 1490 1492 1495 1497 1499 1499 1500 1501 1503 1504 1506 1507 1508 1509 1510 1511 1512 1513 1513 1514 1514 1514 1514 1515 1515 1515 1515 1515 1515 1515 1515 1515 1515 1515
1478 1477 1471 1468 1464 1460 1457 1461 1464 1468 1470 1473 1476 1479 1484 1488 1491 1494 1496 1498 1499 1500 1501 1502 1504 1505 1506 1508 1509 1510 1511 1511 1512 1512 1513 1513 1513 1513 1513 1513 1513 1513 1513 1513 1513 1513 1513 1513 1513
1477 1479 1472 1465 1462 1459 1459 1462 1467 1469 1471 1474 1476 1478 1480 1484 1489 1493 1495 1497 1498 1500 1501 1502 1503 1505 1506 1507 1508 1509 1510 1510 1511 1512 1512 1512 1512 1512 1512 1512 1512 1512 1511 1511 1511 1511 1510 1510 1510
1475 1475 1467 1462 1460 1460 1461 1463 1467 1471 1473 1475 1477 1479 1481 1484 1487 1490 1493 1495 1497 1499 1500 1501 1503 1504 1505 1506 1507 1508 1509 1510 1510 1511 1511 1511 1511 1511 1511 1511 1510 1510 1510 1509 1509 1508 1508 1508 1507
1470 1468 1464 1462 1462 1462 1463 1465 1468 1470 1472 1473 1475 1478 1480 1483 1486 1489 1492 1494 1496 1498 1499 1500 1502 1503 1504 1505 1506 1507 1508 1508 1509 1510 1510 1510 1510 1510 1510 1509 1509 1508 1508 1507 1507 1506 1506 1505 1505
1465 1463 1463 1463 1464 1464 1465 1466 1468 1469 1470 1470 1472 1474 1477 1481 1484 1487 1490 1492 1494 1496 1498 1499 1500 1502 1503 1504 1505 1506 1507 1507 1508 1508 1509 1509 1509 1508 1508 1508 1507 1506 1506 1505 1505 1504 1503 1503 1502
1463 1462 1462 1463 1465 1466 1466 1466 1467 1467 1468 1469 1471 1473 1476 1479 1482 1486 1489 1491 1493 1494 1496 1497 1499 1500 1502 1503 1504 1505 1505 1506 1506 1507 1507 1507 1507 1507 1506 1506 1505 1505 1504 1504 1503 1502 1501 1501 1500
1459 1460 1461 1462 1464 1465 1466 1465 1466 1463 1466 1468 1470 1472 1474 1477 1480 1483 1486 1488 1490 1492 1494 1496 1497 1499 1500 1501 1502 1503 1504 1505 1505 1505 1505 1505 1505 1505 1504 1504 1504 1503 1502 1502 1501 1500 1499 1498 1497
1459 1460 1460 1459 1461 1463 1465 1465 1461 1460 1463 1465 1467 1470 1472 1475 1478 1480 1483 1485 1488 1489 1491 1493 1495 1497 1498 1499 1501 1502 1502 1503 1503 1504 1504 1504 1504 1503 1503 1502 1502 1501 1500 1499 1498 1497 1496 1495 1494
1459 1461 1462 1454 1456 1459 1466 1464 1454 1455 1458 1461 1463 1466 1469 1472 1475 1477 1480 1483 1485 1487 1489 1491 1493 1494 1496 1497 1499 1500 1501 1501 1501 1502 1502 1502 1502 1502 1501 1500 1500 1499 1498 1497 1496 1495 1493 1492 1491
1459 1461 1457 1453 1451 1454 1461 1458 1451 1451 1454 1457 1460 1462 1465 1468 1471 1474 1477 1480 1482 1484 1486 1488 1490 1492 1494 1495 1497 1498 1498 1499 1499 1500 1500 1500 1500 1500 1499 1499 1498 1497 1496 1495 1494 1492 1491 1489 1488
1454 1453 1448 1448 1447 1451 1456 1454 1450 1450 1451 1453 1456 1458 1461 1464 1467 1471 1473 1476 1479 1481 1483 1485 1487 1489 1491 1493 1494 1495 1496 1497 1497 1498 1498 1498 1498 1498 1497 1497 1496 1495 1494 1493 1491 1490 1489 1487 1485
1444 1446 1445 1443 1445 1449 1451 1451 1448 1447 1448 1449 1451 1453 1456 1460 1464 1467 1470 1473 1475 1478 1480 1482 1484 1486 1488 1489 1490 1492 1493 1494 1495 1495 1496 1496 1496 1496 1495 1494 1494 1493 1491 1490 1489 1488 1486 1484 1482
1445 1447 1447 1445 1446 1448 1449 1447 1443 1442 1442 1443 1445 1448 1451 1455 1459 1463 1466 1469 1471 1474 1476 1478 1480 1482 1484 1486 1488 1489 1490 1491 1492 1493 1493 1493 1493 1493 1492 1492 1491 1490 1489 1488 1486 1485 1483 1481 1481
1443 1446 1446 1447 1448 1448 1451 1448 1439 1434 1434 1437 1440 1443 1446 1450 1453 1457 1461 1464 1467 1470 1472 1474 1477 1479 1481 1483 1485 1486 1487 1488 1489 1489 1490 1490 1490 1490 1490 1489 1488 1487 1486 1485 1484 1483 1481 1479 1478
1444 1440 1442 1446 1453 1455 1451 1458 1435 1429 1430 1431 1434 1437 1441 1445 1449 1452 1456 1459 1463 1466 1469 1471 1474 1476 1478 1480 1481 1482 1483 1484 1485 1486 1487 1487 1487 1487 1487 1486 1485 1485 1483 1482 1481 1480 1478 1477 1475
1440 1440 1442 1445 1450 1455 1450 1458 1440 1427 1428 1427 1429 1432 1436 1440 1444 1448 1451 1455 1459 1462 1465 1468 1470 1472 1474 1476 1478 1479 1481 1482 1483 1483 1484 1484 1484 1484 1484 1483 1482 1481 1480 1479 1478 1477 1475 1474 1472
1440 1443 1446 1447 1453 1462 1449 1453 1440 1428 1422 1422 1425 1428 1433 1437 1441 1444 1448 1452 1455 1459 1462 1464 1467 1469 1471 1473 1475 1476 1477 1478 1479 1480 1480 1480 1480 1480 1480 1480 1479 1478 1477 1476 1474 1473 1471 1470 1468
1440 1449 1458 1461 1463 1455 1436 1441 1434 1420 1416 1418 1421 1425 1430 1434 1438 1441 1445 1448 1451 1455 1458 1461 1463 1465 1468 1470 1471 1473 1474 1475 1476 1476 1476 1477 1476 1476 1476 1476 1475 1474 1473 1472 1471 1469 1468 1466 1464
1438 1441 1449 1453 1450 1441 1433 1436 1425 1416 1416 1417 1420 1424 1428 1432 1436 1439 1442 1445 1448 1452 1454 1457 1460 1462 1464 1466 1468 1470 1471 1472 1473 1473 1473 1473 1473 1473 1473 1472 1471 1470 1469 1468 1467 1465 1463 1461 1459
1435 1438 1434 1440 1438 1441 1433 1424 1420 1416 1417 1419 1422 1425 1428 1431 1435 1438 1441 1443 1446 1449 1452 1454 1457 1459 1461 1463 1465 1466 1468 1469 1469 1469 1470 1470 1470 1469 1469 1468 1467 1466 1465 1464 1462 1460 1458 1456 1454
1430 1431 1438 1442 1442 1435 1425 1421 1423 1419 1419 1420 1422 1425 1428 1431 1434 1437 1439 1442 1444 1447 1450 1453 1455 1457 1459 1460 1461 1463 1464 1465 1466 1466 1466 1466 1466 1466 1465 1464 1463 1462 1461 1459 1457 1455 1453 1451 1449
1431 1433 1432 1434 1432 1432 1429 1426 1415 1415 1416 1419 1421 1424 1428 1431 1434 1436 1438 1441 1443 1446 1448 1450 1452 1454 1456 1457 1458 1460 1461 1462 1462 1462 1462 1462 1462 1462 1461 1460 1459 1457 1456 1454 1452 1450 1448 1445 1443
1427 1426 1430 1435 1433 1429 1428 1431 1416 1415 1417 1419 1422 1425 1428 1431 1434 1436 1438 1440 1442 1444 1446 1448 1450 1452 1453 1455 1455 1457 1458 1458 1459 1459 1459 1459 1458 1458 1457 1456 1454 1453 1451 1449 1447 1445 1442 1440 1437